[[{"header":{"parameterUnit":"m.s-1","parameterCategory":1,"la1":30.2991,"la2":30.254,"lo1":-89.0895,"lo2":-89.0444,"dy":0.0017,"dx":0.0017,"nx":28,"ny":28,"refTime":"2025-04-17T09:00:00:Z","depth":0,"parameterNumber":2,"parameterNumberName":"U-component_of_WINDS"},"data":[0,0,0,0,0,0,0,0,0,0,0,0,0,0,0,0,0,0,0,0,0,0,0,0,0,0,0,0,0,0,0,0,0,0,0,0,0,0,0,0,0,0,0,0,0,0,0,0,0,0,0,0,0,0,0,0,0,0,-3.2413,-3.2413,0,-3.243,-3.2431,-3.2431,-3.2421,-3.242,-3.242,-3.2419,-3.2436,-3.2437,-3.2438,0,0,0,0,0,0,0,0,0,0,0,0,0,-3.2372,-3.2372,-3.2413,-3.2413,-3.2413,-3.243,-3.2431,-3.2431,-3.2421,-3.242,-3.2419,-3.2419,-3.2436,-3.2437,-3.2438,0,0,0,0,0,0,0,0,0,0,0,0,0,-3.2389,-3.2373,-3.2413,-3.241,-3.241,-3.243,-3.2431,-3.2431,-3.2421,-3.242,-3.2419,-3.2419,-3.2436,-3.2437,-3.2438,-3.2462,0,0,-3.2443,-3.2443,0,0,0,0,0,0,0,0,-3.2388,-3.2391,-3.2411,-3.2411,-3.2411,-3.2423,-3.2422,-3.2441,-3.2421,-3.2417,-3.2419,-3.2418,-3.2432,-3.2434,-3.2439,-3.2463,-3.2463,-3.2443,-3.2444,-3.2444,-3.2445,0,0,0,0,0,0,0,-3.2387,-3.239,-3.242,-3.2411,-3.2411,-3.2409,-3.241,-3.2426,-3.2428,-3.2417,-3.2416,-3.2419,-3.2432,-3.2438,-3.2439,-3.2464,-3.2443,-3.2444,-3.2445,-3.2445,-3.2508,-3.2509,0,0,0,0,0,0,-3.2386,-3.2389,-3.2419,-3.242,-3.2397,-3.241,-3.2412,-3.2419,-3.2428,-3.2429,-3.2419,-3.2418,-3.2436,-3.2438,-3.244,-3.2467,-3.2444,-3.2446,-3.2446,-3.2507,-3.2508,-3.2509,0,0,0,0,0,0,-3.2385,-3.2389,-3.2419,-3.2405,-3.2408,-3.2411,-3.242,-3.242,-3.2425,-3.243,-3.243,-3.2424,-3.2435,-3.2438,-3.2457,-3.2468,-3.2446,-3.2447,-3.2506,-3.2507,-3.2509,-3.2523,0,0,0,0,0,0,-3.2384,-3.2389,-3.2397,-3.2405,-3.2409,-3.2435,-3.2421,-3.2421,-3.2428,-3.2427,-3.2435,-3.2435,-3.2435,-3.2455,-3.2458,-3.2469,-3.2448,-3.2505,-3.2507,-3.2508,-3.2521,-3.2524,-3.2527,0,0,0,0,0,-3.2383,-3.24,-3.2397,-3.2401,-3.242,-3.2435,-3.2438,-3.2437,-3.2429,-3.2437,-3.2441,-3.2435,-3.2467,-3.2457,-3.246,-3.2472,-3.2504,-3.2506,-3.2508,-3.252,-3.2524,-3.2527,0,0,0,0,0,0,-3.2393,-3.2401,-3.2398,-3.2419,-3.2427,-3.2434,-3.2444,-3.2441,-3.2451,-3.2449,-3.2448,-3.245,-3.2469,-3.2473,-3.2462,-3.2496,-3.2484,-3.2487,-3.2492,-3.2495,-3.2498,-3.2496,-3.245,0,0,0,0,0,-3.2398,-3.241,-3.2416,-3.2434,-3.2438,-3.2441,-3.2447,-3.2446,-3.2454,-3.2457,-3.2462,-3.247,-3.2482,-3.2489,-3.25,-3.2523,-3.2524,-3.2533,-3.2536,-3.2538,-3.254,-3.2552,-3.2556,-3.2515,-3.2515,-3.2515,0,0,-3.2407,-3.2413,-3.2421,-3.2436,-3.2442,-3.2454,-3.2443,-3.2457,-3.2466,-3.2459,-3.2477,-3.2481,-3.249,-3.2511,-3.252,-3.2514,-3.2552,-3.254,-3.2542,-3.2543,-3.2554,-3.2558,-3.2561,-3.2516,-3.2516,-3.2516,0,0,-3.2431,-3.2437,-3.2452,-3.2459,-3.2468,-3.247,-3.2474,-3.2482,-3.2484,-3.2503,-3.2498,-3.251,-3.253,-3.2536,-3.2542,-3.2571,-3.2566,-3.2575,-3.2589,-3.2601,-3.2604,-3.2606,-3.2616,-3.2619,-3.2577,-3.2577,-3.2577,0,-3.2441,-3.246,-3.246,-3.2474,-3.2481,-3.2477,-3.2492,-3.2499,-3.2511,-3.2516,-3.251,-3.2536,-3.2542,-3.2564,-3.2571,-3.2577,-3.2581,-3.2572,-3.2603,-3.2606,-3.2609,-3.2618,-3.2621,-3.2578,-3.2578,-3.2578,-3.2578,0,-3.2472,-3.2485,-3.2496,-3.2509,-3.2518,-3.2532,-3.2535,-3.2544,-3.2543,-3.2546,-3.2565,-3.2572,-3.2585,-3.2591,-3.2589,-3.2613,-3.2609,-3.2603,-3.2591,-3.2613,-3.2622,-3.2625,-3.2579,-3.2579,-3.2579,-3.2578,0,0,-3.2499,-3.2514,-3.2518,-3.2524,-3.2535,-3.2545,-3.2561,-3.2573,-3.258,-3.259,-3.2603,-3.2621,-3.2616,-3.2623,-3.2623,-3.2634,-3.2656,-3.2627,-3.2627,-3.2631,-3.2681,-3.2684,-3.2688,-3.2654,-3.2654,-3.2655,-3.268,0,-3.2523,-3.2549,-3.2551,-3.2574,-3.2587,-3.2584,-3.2598,-3.2606,-3.261,-3.2621,-3.2626,-3.2638,-3.2631,-3.2635,-3.2646,-3.2651,-3.2665,-3.2649,-3.2664,-3.2665,-3.266,-3.2692,-3.2695,-3.2719,-3.2683,-3.2684,-3.2684,0,-3.2552,-3.2563,-3.2588,-3.2599,-3.2604,-3.2616,-3.2628,-3.2639,-3.2649,-3.2652,-3.266,-3.2659,-3.2675,-3.2665,-3.2687,-3.2676,-3.2683,-3.2686,-3.2687,-3.2687,-3.2674,-3.2692,-3.2726,-3.2729,-3.269,-3.2689,-3.2689,0,-3.2569,-3.259,-3.2608,-3.2613,-3.2626,-3.2634,-3.264,-3.265,-3.2658,-3.2669,-3.2674,-3.2687,-3.2694,-3.2704,-3.2707,-3.2699,-3.2729,-3.2719,-3.273,-3.273,-3.2735,-3.2734,-3.2769,-3.2742,-3.2742,-3.2742,-3.2742,0,-3.2593,-3.2608,-3.2615,-3.2626,-3.2643,-3.2646,-3.2663,-3.2669,-3.2677,-3.2689,-3.2689,-3.27,-3.2704,-3.2716,-3.2719,-3.2736,-3.274,-3.2741,-3.2741,-3.274,-3.274,-3.2743,-3.2741,-3.2743,-3.2743,-3.2743,-3.2742,0,-3.2613,-3.2619,-3.2638,-3.2649,-3.2652,-3.2664,-3.2674,-3.2685,-3.2689,-3.2704,-3.2708,-3.2715,-3.273,-3.2734,-3.2751,-3.2753,-3.2773,-3.2773,-3.277,-3.2769,-3.278,-3.2779,-3.2817,-3.2822,-3.2793,-3.2794,-3.2794,0,-3.2628,-3.2639,-3.2652,-3.266,-3.2667,-3.268,-3.2688,-3.2692,-3.2701,-3.2714,-3.2723,-3.2738,-3.2749,-3.2772,-3.2779,-3.2792,-3.2791,-3.2804,-3.2793,-3.2792,-3.279,-3.2788,-3.2789,-3.2805,-3.2805,-3.2806,-3.2806,0,-3.2652,-3.2655,-3.2667,-3.268,-3.2691,-3.2701,-3.2712,-3.2718,-3.2724,-3.2734,-3.2749,-3.2758,-3.2776,-3.279,-3.2805,-3.2811,-3.2809,-3.281,-3.2813,-3.2811,-3.2808,-3.2809,-3.2773,-3.2808,-3.2808,-3.2808,-3.2808,-3.2808,-3.2669,-3.2679,-3.269,-3.2704,-3.2713,-3.2723,-3.2733,-3.274,-3.2752,-3.2767,-3.277,-3.2785,-3.2797,-3.2815,-3.2822,-3.2835,-3.2831,-3.2836,-3.2837,-3.2838,-3.2838,-3.2808,-3.2838,-3.2838,-3.2838,-3.2838,-3.2838,0,-3.2692,-3.27,-3.2713,-3.2728,-3.2739,-3.2738,-3.275,-3.2759,-3.2773,-3.2784,-3.2795,-3.2813,-3.2827,-3.2836,-3.285,-3.2858,-3.2858,-3.2862,-3.286,-3.2862,-3.2841,-3.2836,-3.2862,-3.2862,-3.2862,-3.2862,-3.2862,-3.2862,-3.2706,-3.2723,-3.2727,-3.2749,-3.2757,-3.2772,-3.2779,-3.2789,-3.2797,-3.2817,-3.2829,-3.2835,-3.2845,-3.286,-3.2873,-3.2876,-3.288,-3.2884,-3.2886,-3.2866,-3.2863,-3.2861,-3.2856,-3.2885,-3.2885,-3.2905,-3.2905,-3.2905]},{"header":{"parameterUnit":"m.s-1","parameterCategory":1,"la1":30.2991,"la2":30.254,"lo1":-89.0895,"lo2":-89.0444,"dy":0.0017,"dx":0.0017,"nx":28,"ny":28,"refTime":"2025-04-17T09:00:00:Z","depth":0,"parameterNumber":3,"parameterNumberName":"V-component_of_WINDS"},"data":[0,0,0,0,0,0,0,0,0,0,0,0,0,0,0,0,0,0,0,0,0,0,0,0,0,0,0,0,0,0,0,0,0,0,0,0,0,0,0,0,0,0,0,0,0,0,0,0,0,0,0,0,0,0,0,0,0,0,4.8108,4.8109,0,4.8253,4.8255,4.8256,4.831,4.831,4.8309,4.8309,4.845,4.8454,4.8458,0,0,0,0,0,0,0,0,0,0,0,0,0,4.787,4.7874,4.8107,4.8109,4.8111,4.8253,4.8255,4.8257,4.831,4.831,4.8309,4.8309,4.8449,4.8454,4.8459,0,0,0,0,0,0,0,0,0,0,0,0,0,4.7989,4.7875,4.8107,4.8155,4.8161,4.8252,4.8255,4.8257,4.8311,4.831,4.8309,4.8309,4.8447,4.8453,4.8459,4.8511,0,0,4.8479,4.8481,0,0,0,0,0,0,0,0,4.7983,4.7998,4.8146,4.8152,4.8159,4.8263,4.8223,4.8342,4.8311,4.8253,4.8309,4.8308,4.8388,4.8399,4.8428,4.8518,4.8524,4.8479,4.8483,4.8486,4.8487,0,0,0,0,0,0,0,4.7974,4.7992,4.8165,4.8148,4.8156,4.8167,4.8184,4.8245,4.8322,4.8258,4.8263,4.828,4.8391,4.8421,4.8431,4.8526,4.8479,4.8484,4.8488,4.8491,4.8667,4.8668,0,0,0,0,0,0,4.7959,4.7985,4.816,4.8169,4.8068,4.8172,4.819,4.823,4.8322,4.8335,4.828,4.8282,4.8411,4.8424,4.8436,4.8505,4.8486,4.8491,4.8495,4.8666,4.8667,4.8668,0,0,0,0,0,0,4.7954,4.7974,4.8154,4.8078,4.8102,4.8177,4.8221,4.8233,4.8264,4.8338,4.8352,4.8297,4.8411,4.8428,4.8493,4.851,4.8494,4.85,4.8665,4.8667,4.8668,4.864,0,0,0,0,0,0,4.7947,4.7972,4.7994,4.8079,4.8106,4.8211,4.8222,4.8237,4.8275,4.8279,4.8358,4.837,4.8412,4.8483,4.8499,4.8518,4.8505,4.8664,4.8666,4.8667,4.864,4.864,4.8641,0,0,0,0,0,4.7938,4.7978,4.7995,4.8016,4.8136,4.8211,4.8227,4.8276,4.8276,4.8298,4.8346,4.8368,4.8505,4.849,4.8508,4.8529,4.8663,4.8665,4.8667,4.8639,4.864,4.8641,0,0,0,0,0,0,4.7891,4.799,4.801,4.8079,4.8137,4.822,4.825,4.8275,4.8331,4.8332,4.8388,4.8405,4.8466,4.8504,4.8485,4.8585,4.8585,4.8591,4.8558,4.8559,4.856,4.855,4.851,0,0,0,0,0,4.7889,4.7945,4.8027,4.808,4.8109,4.8174,4.8209,4.8242,4.8303,4.8327,4.8379,4.8436,4.8492,4.8527,4.8583,4.8645,4.8663,4.8668,4.8669,4.8669,4.8673,4.871,4.8714,4.8675,4.8675,4.8675,0,0,4.7884,4.7946,4.7977,4.8073,4.8121,4.8176,4.8194,4.8251,4.8292,4.8334,4.8401,4.8441,4.8508,4.8572,4.8603,4.8605,4.8688,4.8672,4.8671,4.8676,4.8713,4.8716,4.8719,4.8677,4.8676,4.8676,0,0,4.7905,4.7957,4.8008,4.8057,4.8132,4.8175,4.8187,4.8268,4.8297,4.8365,4.8399,4.8447,4.8542,4.8588,4.8624,4.8664,4.8686,4.868,4.8682,4.8717,4.872,4.8723,4.8738,4.8743,4.8684,4.8684,4.8684,0,4.789,4.7977,4.803,4.8087,4.8127,4.8172,4.8223,4.8266,4.8354,4.838,4.8382,4.8504,4.8551,4.8628,4.8638,4.8665,4.868,4.8671,4.8716,4.872,4.8723,4.8738,4.8743,4.8683,4.8683,4.8683,4.8683,0,4.7955,4.8014,4.8045,4.8133,4.8177,4.823,4.829,4.8327,4.8356,4.8399,4.8467,4.8526,4.8595,4.8615,4.8642,4.8696,4.8695,4.8706,4.8708,4.8725,4.874,4.8746,4.8681,4.8681,4.8682,4.8682,0,0,4.795,4.8068,4.8078,4.8119,4.8205,4.825,4.8304,4.8375,4.8407,4.8465,4.8512,4.8592,4.8603,4.8643,4.8676,4.8707,4.8735,4.8714,4.8716,4.8717,4.8798,4.8791,4.8797,4.875,4.8752,4.8753,4.8793,0,4.7983,4.8086,4.8137,4.8216,4.8272,4.8314,4.8362,4.8418,4.8459,4.851,4.8554,4.8611,4.8621,4.8646,4.8678,4.8725,4.8753,4.8723,4.8793,4.8795,4.8777,4.8804,4.8796,4.8832,4.8799,4.88,4.8801,0,4.8036,4.8098,4.8185,4.8265,4.829,4.8332,4.8401,4.845,4.8514,4.8542,4.8588,4.862,4.8678,4.8675,4.8754,4.8733,4.8764,4.8792,4.8794,4.8804,4.88,4.8815,4.8844,4.885,4.881,4.881,4.8809,0,4.8026,4.813,4.8196,4.8229,4.8324,4.8353,4.8393,4.8458,4.8497,4.8556,4.8582,4.8645,4.868,4.8728,4.8776,4.877,4.8851,4.8852,4.8875,4.8873,4.8891,4.8889,4.8926,4.8909,4.8909,4.8908,4.8908,0,4.8059,4.811,4.8193,4.8234,4.8292,4.8348,4.8404,4.8447,4.8504,4.8552,4.8591,4.8635,4.8695,4.8746,4.8783,4.8844,4.8859,4.8882,4.8891,4.8879,4.8877,4.8901,4.8901,4.891,4.891,4.8909,4.8909,0,4.8058,4.8116,4.819,4.8275,4.8297,4.8337,4.8408,4.8448,4.8491,4.8552,4.8569,4.8636,4.8698,4.8751,4.8831,4.8857,4.8919,4.893,4.8899,4.8904,4.8924,4.8922,4.898,4.899,4.8964,4.8964,4.8964,0,4.8076,4.8117,4.8207,4.8244,4.8284,4.8342,4.8383,4.8439,4.848,4.8557,4.8587,4.8653,4.8709,4.8805,4.886,4.8922,4.8935,4.8951,4.8944,4.8931,4.8937,4.8934,4.8939,4.8951,4.8951,4.8951,4.8951,0,4.8102,4.8129,4.8188,4.8258,4.8307,4.8363,4.8421,4.8447,4.8514,4.8557,4.8623,4.8666,4.875,4.8815,4.8883,4.8922,4.8948,4.8953,4.8962,4.895,4.8931,4.8943,4.8901,4.8952,4.8952,4.8952,4.8952,4.8952,4.8112,4.8151,4.8221,4.8286,4.8336,4.8389,4.8431,4.8481,4.8537,4.8612,4.8641,4.8708,4.8771,4.8865,4.8905,4.8957,4.896,4.8972,4.8976,4.8978,4.8977,4.8922,4.8969,4.8969,4.8969,4.8969,4.8969,0,4.8141,4.8189,4.8248,4.8329,4.8379,4.8401,4.8466,4.8507,4.8566,4.8624,4.8679,4.8754,4.8817,4.8877,4.8942,4.8972,4.8986,4.8987,4.8986,4.8995,4.897,4.8956,4.8976,4.8976,4.8976,4.8976,4.8976,4.8976,4.8162,4.823,4.8265,4.8358,4.8404,4.8473,4.8508,4.8557,4.8603,4.8687,4.874,4.878,4.8838,4.8909,4.8967,4.8982,4.9005,4.9004,4.9023,4.8998,4.8997,4.8995,4.8983,4.9008,4.9008,4.9044,4.9045,4.9045]}]]